Weather History for KLFT - March, 2015

Change the Weather History Date:

Monday, March 2, 2015

  Actual Average Record
Temperature  
Mean Temperature 59 °F 59 °F  
Max Temperature 64 °F 69 °F 85 °F (1932)
Min Temperature 53 °F 50 °F 25 °F (1980)
Degree Days  
Heating Degree Days 6 7  
Month to date heating degree days 6 14  
Since 1 July heating degree days 1449 1244  
Cooling Degree Days 0 1  
Month to date cooling degree days 1 2  
Year to date cooling degree days 6 34  
Growing Degree Days 8 (Base 50)    
Moisture  
Dew Point 58 °F    
Average Humidity 97    
Maximum Humidity 100    
Minimum Humidity 93    
Precipitation  
Precipitation 0.05 in 0.14 in 4.15 in (1979)
Month to date precipitation 1.48 0.28  
Year to date precipitation 8.58 10.40  
Snow  
Snow 0.00 in 0.00 in 0.00 in ()
Month to date snowfall 0.0 0.0  
Since 1 July snowfall 0.0 T  
Snow Depth 0.00 in    
Sea Level Pressure  
Sea Level Pressure 30.23 in    
Wind  
Wind Speed 6 mph (NNE)    
Max Wind Speed 10 mph    
Max Gust Speed 13 mph    
Visibility 2 miles    
Events Fog , Rain    
T = Trace of Precipitation, MM = Missing Value Source: NWS Daily Summary

Daily Weather History Graph

Daily Weather History Graph

Search for Another Location

Airport or City:

Trip Planner

Search our weather history database for the weather conditions in past years. The results will help you decide how hot, cold, wet, or windy it might be!

Date:

Astronomy

Mar. 02, 2015 Rise Set
Actual Time 6:33 AM CST 6:07 PM CST
Civil Twilight 6:09 AM CST 6:31 PM CST
Nautical Twilight 5:41 AM CST 6:59 PM CST
Astronomical Twilight 5:13 AM CST 7:27 PM CST
Moon 3:44 PM CST (3/2) 4:28 AM CST (3/2)
Length of Visible Light 12h 22m
Length of Day
11h 34m
Waxing Gibbous, 92% of the Moon is Illuminated
Mar 2
Waxing Gibbous
Mar 5
Full
Mar 13
Last Quarter
Mar 20
New
Mar 27
First Quarter

Hourly Weather History & Observations

Time (CST) Temp. Dew Point Humidity Pressure Visibility Wind Dir Wind Speed Gust Speed Precip Events Conditions
12:25 AM 64.0 °F 63.0 °F 96% 30.26 in 10.0 mi ESE 4.6 mph - 0.04 in Rain Light Rain
12:53 AM 63.0 °F 62.1 °F 97% 30.25 in 10.0 mi East 3.5 mph - 0.04 in   Overcast
1:29 AM 63.0 °F 62.1 °F 97% 30.25 in 9.0 mi ESE 6.9 mph - 0.01 in Rain Light Rain
1:53 AM 63.0 °F 62.1 °F 97% 30.25 in 8.0 mi East 3.5 mph - 0.01 in Rain Light Rain
2:53 AM 62.6 °F 62.6 °F 100% 30.23 in 6.0 mi Variable 3.5 mph - N/A   Overcast
3:53 AM 62.1 °F 62.1 °F 100% 30.22 in 3.0 mi East 4.6 mph - N/A   Overcast
4:04 AM 62.6 °F 62.6 °F 100% 30.22 in 2.5 mi Calm Calm - N/A   Overcast
4:46 AM 62.1 °F 61.0 °F 96% 30.21 in 1.5 mi Calm Calm - N/A   Overcast
4:53 AM 62.1 °F 62.1 °F 100% 30.22 in 1.2 mi Variable 3.5 mph - N/A   Overcast
5:53 AM 62.1 °F 62.1 °F 100% 30.23 in 1.0 mi Variable 3.5 mph - N/A   Mist
6:04 AM 62.1 °F 62.1 °F 100% 30.23 in 0.8 mi Calm Calm - N/A   Mist
6:50 AM 62.6 °F 62.6 °F 100% 30.23 in 0.2 mi Calm Calm - N/A Fog Fog
6:53 AM 62.1 °F 62.1 °F 100% 30.23 in 0.2 mi Calm Calm - N/A Fog Fog
7:53 AM 62.1 °F 62.1 °F 100% 30.25 in 0.2 mi ENE 4.6 mph - N/A Fog Fog
8:53 AM 62.6 °F 62.6 °F 100% 30.27 in 0.2 mi North 5.8 mph - N/A Fog Fog
9:34 AM 63.0 °F 62.1 °F 97% 30.27 in 0.5 mi North 6.9 mph - N/A Fog Fog
9:53 AM 63.0 °F 62.1 °F 97% 30.28 in 0.5 mi NNE 5.8 mph - N/A Fog Fog
10:46 AM 59.0 °F 59.0 °F 100% 30.29 in 1.0 mi NNE 6.9 mph - N/A   Overcast
10:53 AM 59.0 °F 57.9 °F 96% 30.29 in 1.0 mi NE 6.9 mph - N/A   Overcast
11:53 AM 60.1 °F 59.0 °F 96% 30.27 in 1.0 mi NNE 4.6 mph - N/A   Overcast
12:31 PM 60.1 °F 59.0 °F 96% 30.26 in 0.8 mi North 6.9 mph - N/A   Overcast
12:38 PM 60.1 °F 59.0 °F 96% 30.25 in 1.2 mi North 8.1 mph - N/A   Overcast
12:53 PM 59.0 °F 57.9 °F 96% 30.25 in 1.8 mi North 6.9 mph - N/A   Overcast
1:33 PM 57.9 °F 57.0 °F 97% 30.23 in 2.0 mi NNE 6.9 mph - N/A   Overcast
1:46 PM 59.0 °F 57.0 °F 93% 30.23 in 5.0 mi NNE 8.1 mph - N/A   Overcast
1:53 PM 59.0 °F 57.0 °F 93% 30.22 in 6.0 mi North 6.9 mph - N/A   Overcast
2:02 PM 59.0 °F 57.0 °F 93% 30.22 in 2.0 mi North 8.1 mph - N/A   Overcast
2:53 PM 57.9 °F 57.0 °F 97% 30.22 in 2.0 mi NNE 8.1 mph - N/A   Overcast
3:00 PM 57.9 °F 55.9 °F 93% 30.21 in 4.0 mi NNE 8.1 mph - N/A   Overcast
3:53 PM 57.2 °F 55.4 °F 94% 30.20 in 10.0 mi NNE 6.9 mph - N/A   Overcast
4:53 PM 57.0 °F 55.0 °F 93% 30.20 in 6.0 mi North 10.4 mph - N/A   Overcast
5:17 PM 55.9 °F 54.0 °F 93% 30.19 in 3.0 mi NNE 9.2 mph - N/A   Overcast
5:33 PM 55.0 °F 54.0 °F 96% 30.20 in 2.5 mi North 8.1 mph - N/A   Overcast
5:41 PM 54.0 °F 53.1 °F 97% 30.20 in 1.5 mi NNE 10.4 mph - N/A   Overcast
5:51 PM 53.6 °F 53.6 °F 100% 30.20 in 0.5 mi North 8.1 mph - N/A Fog Fog
5:53 PM 54.0 °F 54.0 °F 100% 30.20 in 0.5 mi North 8.1 mph - N/A Fog Fog
6:00 PM 54.0 °F 54.0 °F 100% 30.20 in 0.2 mi NE 5.8 mph - N/A Fog Fog
6:53 PM 54.0 °F 53.1 °F 97% 30.20 in 0.2 mi NNE 6.9 mph - N/A Fog Fog
7:00 PM 54.0 °F 53.1 °F 97% 30.20 in 1.8 mi NNE 8.1 mph - N/A   Overcast
7:53 PM 53.1 °F 53.1 °F 100% 30.21 in 1.0 mi NE 6.9 mph - N/A   Mist
8:08 PM 53.1 °F 53.1 °F 100% 30.20 in 0.8 mi NNE 8.1 mph - N/A   Mist
8:53 PM 53.1 °F 53.1 °F 100% 30.21 in 0.5 mi NNE 6.9 mph - N/A Fog Fog
9:06 PM 53.1 °F 53.1 °F 100% 30.21 in 1.2 mi NE 4.6 mph - N/A   Overcast
9:21 PM 53.1 °F 53.1 °F 100% 30.21 in 2.5 mi NE 6.9 mph - N/A   Overcast
9:53 PM 53.1 °F 53.1 °F 100% 30.22 in 1.8 mi NNE 5.8 mph - N/A   Overcast
10:16 PM 53.1 °F 53.1 °F 100% 30.21 in 0.8 mi ENE 3.5 mph - N/A   Mist
10:53 PM 53.1 °F 53.1 °F 100% 30.19 in 0.5 mi NE 6.9 mph - N/A Fog Fog
11:28 PM 53.1 °F 53.1 °F 100% 30.18 in 0.2 mi NE 4.6 mph - N/A Fog Fog
11:53 PM 53.1 °F 53.1 °F 100% 30.17 in 0.2 mi NE 3.5 mph - N/A Fog Fog